Location: Harwich
(41.6860°N, 70.0760°W)
Time: 15:14:27
(UTC-04:00)

Cosmos 2228 - Visible Passes

Search period start: 27 July 2016 00:00
Search period end: 06 August 2016 00:00
Orbit: 590 x 621 km, 82.5° (Epoch: 26 July)

Date Brightness Start Highest point End Pass type
(mag) Time Alt. Az. Time Alt. Az. Time Alt. Az.
27 Jul 4.2 01:38:53 36° ENE 01:38:53 36° ENE 01:42:04 10° NNE visible
27 Jul 4.9 03:15:46 17° WNW 03:15:49 17° WNW 03:18:35 10° NNW visible
28 Jul 3.8 01:52:06 51° NNE 01:52:06 51° NNE 01:55:24 10° NNE visible
29 Jul 3.8 02:05:18 47° NNW 02:05:18 47° NNW 02:08:32 10° N visible
30 Jul 5.4 00:41:36 15° ENE 00:41:36 15° ENE 00:43:02 10° NE visible
30 Jul 4.3 02:18:29 32° NW 02:18:29 32° NW 02:21:29 10° N visible
31 Jul 5.0 00:54:47 22° NE 00:54:47 22° NE 00:56:53 10° NNE visible
31 Jul 4.8 02:31:39 21° NW 02:31:39 21° NW 02:34:11 10° NNW visible
01 Aug 4.7 01:07:57 30° NE 01:07:57 30° NE 01:10:23 10° NNE visible
01 Aug 5.3 02:44:49 14° WNW 02:44:49 14° WNW 02:46:24 10° NW visible
02 Aug 4.5 01:21:06 35° N 01:21:06 35° N 01:23:38 10° N visible
03 Aug 4.6 01:34:14 32° NNW 01:34:14 32° NNW 01:36:43 10° N visible
04 Aug 5.5 00:10:30 14° NE 00:10:30 14° NE 00:11:32 10° NE visible
04 Aug 4.9 01:47:22 24° NW 01:47:22 24° NW 01:49:35 10° NNW visible
05 Aug 5.2 00:23:37 20° NE 00:23:37 20° NE 00:25:14 10° NNE visible
05 Aug 5.3 02:00:30 17° NW 02:00:30 17° NW 02:02:10 10° NNW visible
